OpenBCM V1.08-3-g9b42 (Linux)

Packet Radio Mailbox

OK0NBR

[Sao_Jose_dos_Campo]

 Login: GUEST





  
I0OJJ  > KEPS     30.10.25 12:03l 314 Lines 14999 Bytes #180 (0) @ AMSAT
BID : ORB25303.1
Read: GUEST
Subj: 2Line Orbital Elements 25303.AMSAT
Path: OK0NBR<IW0QNL<HB9ON<DK0WUE<PI8ZTM<CX2SA<EA2RCF<I0OJJ
Sent: 251030/0021z @:I0OJJ.ITA.EU [Rome] obcm1.08-11-2-gbfe9
From: I0OJJ @ I0OJJ.ITA.EU (Gustavo)
To:   KEPS @ AMSAT
X-Info: This message was generated automatically


QST de W1STR

AMSAT Orbital Elements for Amateur Satellites in TLE Format
From Orbital Analysis Office
New England Sci-Tech STEM Education Center
Natick MA October 30, 2025
To all radio amateurs


These element sets describe the orbits of various satellites 
in use by the amateur radio community. For details see:
www.amsat.org/keplerian-elements-formats/

A daily update of element sets is available at:
www.amsat.org/tle/daily-bulletin.txt
or without bulletin text:
www.amsat.org/tle/dailytle.txt


AO-07
1 07530U 74089B   25302.54021204 -.00000024  00000-0  14089-3 0  9995
2 07530 101.9983 308.3390 0012040 210.4824 270.3576 12.53692903331616
UO-11
1 14781U 84021B   25302.47159759  .00002184  00000-0  23259-3 0  9994
2 14781  97.7745 266.2113 0006474 218.1262 141.9499 14.89915803222760
AO-27
1 22825U 93061C   25302.17506631  .00000181  00000-0  86060-4 0  9993
2 22825  98.7205   4.3236 0009340  62.3935 297.8194 14.30852085673961
FO-29
1 24278U 96046B   25302.26436119  .00000001  00000-0  39113-4 0  9994
2 24278  98.5506 177.3593 0349595 335.5827  22.9091 13.53258554441936
NOAA-15
1 25338U 98030A   25302.51704868  .00000198  00000-0  98982-4 0  9990
2 25338  98.5269 324.1830 0009294 307.4656  52.5679 14.27043605428390
GO-32
1 25397U 98043D   25302.52203580  .00000156  00000-0  87831-4 0  9990
2 25397  98.9882 284.7216 0001895 128.9319 231.2028 14.24358171418498
ISS
1 25544U 98067A   25302.48953544  .00013618  00000-0  24977-3 0  9995
2 25544  51.6347   1.5519 0004808 353.3325   6.7599 15.49579513535999
NO-44
1 26931U 01043C   25302.52036019  .00000254  00000-0  12602-3 0  9992
2 26931  67.0485 120.8283 0007147 272.4457  87.5826 14.31815498257427
SO-50
1 27607U 02058C   25301.87172317  .00001778  00000-0  23221-3 0  9990
2 27607  64.5504 124.2442 0069325 304.8872  54.5730 14.82139647230165
CO-55
1 27844U 03031E   25302.46858845  .00000505  00000-0  23849-3 0  9991
2 27844  98.6785 308.9398 0010422 131.3372 228.8706 14.24122892158832
CO-57
1 27848U 03031J   25302.48401299  .00000424  00000-0  20570-3 0  9992
2 27848  98.6812 308.8519 0010054 147.7334 212.4461 14.23439474158553
RS-22
1 27939U 03042A   25302.55405301  .00001854  00000-0  29831-3 0  9998
2 27939  98.3378 115.5854 0010288 281.6201 148.9423 14.72776946181596
CO-58
1 28895U 05043F   25302.38639492  .00002980  00000-0  48659-3 0  9994
2 28895  98.2695  88.7312 0013799 214.0634 145.9688 14.71622615 67796
CO-65
1 32785U 08021C   25302.47304255  .00009450  00000-0  64748-3 0  9998
2 32785  97.8040 274.9732 0011492  91.2418 269.0125 15.06225071950425
CO-66
1 32791U 08021J   25302.52395181  .00021473  00000-0  91047-3 0  9990
2 32791  97.7425 286.2272 0005738  60.0111 300.1694 15.23135176952068
RS-30
1 32953U 08025A   25302.52782826  .00000019  00000-0  63191-4 0  9993
2 32953  82.5001 138.9243 0019950  94.7863 265.5496 12.43169804791036
NOAA-19
1 33591U 09005A   25302.49315890  .00000073  00000-0  62794-4 0  9998
2 33591  98.9823   7.8902 0013104 326.3271  33.7067 14.13422049861899
SRMSAT
1 37841U 11058D   25302.54716647  .00000510  00000-0  13331-3 0  9990
2 37841  19.9733  15.4091 0011653 185.7554 202.5121 14.11488424725192
ZACUBE-1
1 39417U 13066B   25302.39353981  .00008151  00000-0  67660-3 0  9996
2 39417  97.7979 258.9147 0041410 299.8147  59.8961 14.98368973646136
Delfi-N3xt
1 39428U 13066N   25302.32414119  .00012741  00000-0  12241-2 0  9996
2 39428  97.8299 218.5306 0078601 252.8869 106.3730 14.90847065640171
GOMX-1
1 39430U 13066Q   25302.54240390  .00002702  00000-0  41749-3 0  9993
2 39430  97.6645 152.4320 0132414  97.6431 263.9836 14.68296371636054
LO-74
1 39440U 13066AA  25302.39744058  .00007615  00000-0  74284-3 0  9995
2 39440  97.8635 246.1679 0062504  72.1844 288.6180 14.91244079642565
AO-73
1 39444U 13066AE  25302.45394008  .00013572  00000-0  94742-3 0  9992
2 39444  97.7997 265.2395 0037849 267.5275  92.1618 15.04895957644904
DTUSAT-2
1 40030U 14033W   25302.43892660  .00012676  00000-0  76907-3 0  9992
2 40030  98.0720 281.4572 0007081 311.0301  49.0315 15.10666555617791
EO-80
1 40032U 14033Y   25302.51778892  .00010047  00000-0  60956-3 0  9990
2 40032  98.0601 280.9971 0006143 231.8275 128.2401 15.10737087617789
LILACSAT-2
1 40908U 15049K   25302.53082741  .00017796  00000-0  40633-3 0  9991
2 40908  97.4976 326.5993 0008886  23.0411 337.1233 15.42892999560082
IO-86
1 40931U 15052B   25151.18580175  .00001241  00000-0  78118-4 0  9996
2 40931   6.0006  24.0987 0012733 338.8432  21.1169 14.78805930523159
Horyu-4
1 41340U 16012D   25302.19495769  .00051904  00000-0  10351-2 0  9995
2 41340  30.9949 254.6417 0003481 135.4791 224.6137 15.45587005534640
Lapan A3
1 41603U 16040E   25302.52056476  .00005285  00000-0  17830-3 0  9994
2 41603  97.1434 301.7017 0012551 117.1996 243.0526 15.31037059519495
CAS-2T
1 41847U 16066G   25302.48645620  .00002084  00000-0  30058-3 0  9993
2 41847  98.4077  15.6594 0345506 108.9794 254.9167 14.43965341471491
TechnoSat
1 42829U 17042E   25302.46031882  .00006170  00000-0  46219-3 0  9992
2 42829  97.4049 104.5964 0019073 158.3169 201.8868 15.02897139452023
AO-91
1 43017U 17073E   25302.12550165  .00014357  00000-0  69100-3 0  9999
2 43017  97.4995 169.3693 0166095  43.7860 317.6399 15.07441917430512
S-Net D
1 43186U 18014G   25302.47076793  .00008433  00000-0  47342-3 0  9992
2 43186  97.5473 203.9430 0010762  94.2964 265.9497 15.13536671423829
S-Net B
1 43187U 18014H   25302.47812881  .00008522  00000-0  47861-3 0  9994
2 43187  97.5480 203.9288 0011456  90.5295 269.7249 15.13511820423822
S-Net A
1 43188U 18014J   25302.27231574  .00008900  00000-0  49929-3 0  9994
2 43188  97.5489 203.8947 0011363  91.6524 268.6009 15.13539711423794
S-Net C
1 43189U 18014K   25302.48093722  .00008641  00000-0  48518-3 0  9994
2 43189  97.5504 204.1393 0012796  85.1278 275.1414 15.13504984422377
Ten-Koh
1 43677U 18084G   25302.46459728  .00004025  00000-0  31698-3 0  9996
2 43677  98.0688 120.3330 0009393 152.0803 208.0926 15.01376110381524
PO-101
1 43678U 18084H   25302.53695580  .00003559  00000-0  29787-3 0  9990
2 43678  98.1105 124.2202 0007891 157.3638 202.7933 14.99123716381646
QO-100
1 43700U 18090A   25300.12149642  .00000156  00000-0  00000-0 0  9993
2 43700   0.0213 118.9319 0001997 135.6013 210.7612  1.00274319 25349
MinXSS-2
1 43758U 18099A   25302.17265007  .00030650  00000-0  10060-2 0  9997
2 43758  97.4853   9.0222 0010460  22.5275 337.6423 15.31489147378597
AO-95
1 43770U 18099N   25302.12648188  .00015946  00000-0  73328-3 0  9999
2 43770  97.4739 358.7742 0011372  82.0130 278.2395 15.20374693378033
SNUSat 2
1 43782U 18099AA  25302.41864110  .00012328  00000-0  62367-3 0  9991
2 43782  97.4420 354.6052 0011978  29.7835 330.4078 15.17109649377989
SnugLite
1 43784U 18099AC  25302.38779947  .00015711  00000-0  71581-3 0  9999
2 43784  97.4234 354.4768 0003915  44.7052 315.4499 15.20747277378166
ITASat 1
1 43786U 18099AE  25302.39626323  .00010186  00000-0  54585-3 0  9997
2 43786  97.4391 353.6477 0015311  77.9570 282.3377 15.15083199377915
EAGLET 1
1 43790U 18099AJ  25302.13043037  .00006305  00000-0  38612-3 0  9990
2 43790  97.4591 352.8189 0013206  67.2747 292.9877 15.10466202377425
ESEO
1 43792U 18099AL  25302.48605671  .00002386  00000-0  18030-3 0  9995
2 43792  97.4286 344.4681 0013253  43.7844 316.4431 15.03214852377131
JO-97
1 43803U 18099AX  25302.41825926  .00020426  00000-0  82282-3 0  9993
2 43803  97.4487   0.4284 0006979  20.5567 339.5950 15.24861716378354
Suomi 100
1 43804U 18099AY  25302.42356287  .00016577  00000-0  73302-3 0  9999
2 43804  97.4553 359.2663 0011750  20.7510 339.4201 15.21707363378248
ISAT
1 43879U 18111D   25302.34643503  .00044206  00000-0  11967-2 0  9995
2 43879  97.5873 220.4266 0010648  65.5935 294.6419 15.37496141375412
UWE-4
1 43880U 18111E   25302.50599816  .00028509  00000-0  93582-3 0  9994
2 43880  97.5821 217.9134 0013570  73.5031 286.7700 15.31464144375300
Sparrow
1 43881U 18111F   25302.51973801  .00044981  00000-0  11469-2 0  9991
2 43881  97.6053 224.1101 0009528  90.0679 270.1658 15.39349285375555
Prox-1
1 44339U 19036A   25302.07031875  .00019550  00000-0  22851-2 0  9995
2 44339  23.9955 210.2334 0007097 251.0351 108.9377 14.83519278339023
Taurus 1
1 44530U 19059C   25302.48562470  .00010817  00000-0  18899-2 0  9992
2 44530  98.6219  88.9433 0008719 312.6614  47.3854 14.68077543324742
Duchifat 3
1 44854U 19089C   25302.30133854  .00231405  00000-0  17662-2 0  9990
2 44854  36.9320 163.0254 0009690 315.9025  44.0966 15.70508838325082
TO-108
1 44881U 19093C   25302.46152637  .00001546  00000-0  18296-3 0  9998
2 44881  97.7804  15.0769 0014900 122.7802 237.4851 14.85948270317140
FloripaSat 1
1 44885U 19093G   25302.50739361  .00009021  00000-0  72168-3 0  9996
2 44885  97.8070  30.5129 0011571 107.7245 252.5242 15.00379002318015
RS-44
1 44909U 19096E   25302.52956558  .00000022  00000-0  47816-4 0  9992
2 44909  82.5182 132.9906 0216927 323.9074  34.7545 12.79744894272845
SALSAT
1 46495U 20068K   25302.52600889  .00011623  00000-0  46472-3 0  9993
2 46495  97.8764 287.4572 0012133  38.4470 321.7628 15.25215119280148
CSS (TIANHE-1)
1 48274U 21035A   25302.20706547  .00041109  00000-0  47775-3 0  9997
2 48274  41.4665 287.2021 0010603 303.7055  56.2773 15.60898372257078
TUBIN
1 48900U 21059X   25302.51977500  .00141169  00000-0  71484-3 0  9993
2 48900  97.6720 125.0463 0001593  58.1322 302.0101 15.81148712242287
CUTE
1 49263U 21088D   25302.48654700  .00036153  00000-0  54191-3 0  9990
2 49263  97.4381  23.4748 0006763  79.4993 280.7022 15.54835507226418
